Location: Newark
(43.4306°N, 0.3089°E)
Time: 12:29:08
(UTC+00:00)

Vanguard 1 Rocket - Pass Details

Date: 01 September 2019
Orbit: 652 x 4225 km, 34.3° (Epoch: 15 September)

Event Time Altitude Azimuth Distance (km) Brightness Sun altitude
Exits shadow 03:11:26 19° 162° (SSE) 1,716 8.6 -22.3°
Drops below altitude 10° 03:13:46 10° 140° (SE) 2,407 9.6 -21.9°
Sets 03:17:14 0° 126° (SE) 3,701 10.8 -21.4°
